Miscellaneous Local Product
Issued by NWS North Platte, NE

Home | Current Version | Previous Version | Text Only | Print | Product List | Glossary On
Versions: 1 2 3 4 5 6 7 8 9 10 11 12 13 14 15 16 17 18 19 20 21 22 23 24 25 26 27 28 29 30 31 32 33 34 35 36 37 38 39 40 41 42 43 44 45 46 47 48 49 50
000
AXUS43 KLBF 291810
MISLBF


WESTERN AND NORTH CENTRAL NEBRASKA HOURLY WEATHER ROUNDUP
NATIONAL WEATHER SERVICE NORTH PLATTE NE
1200 PM CST THU JAN 29 2015

***STATIONS NOT REPORTING VARIABLES SUCH AS SKY/WEATHER OR
PRESSURE ARE PROVIDED BY THE NEBRASKA DEPARTMENT OF
ROADS...RAWS...AND APRS NETWORKS...AND ARE NOT UNDER
NATIONAL WEATHER SERVICE QUALITY CONTROL***

...OBSERVATIONS IN AND NEAR THE EASTERN PANHANDLE OF NEBRASKA...

CITY           SKY/WX    TMP DP  RH WIND       PRES   REMARKS
PINE RIDGE     SUNNY     36  26  67 W10       30.50S WCI  28
CHADRON        SUNNY     39  23  52 NW10      30.51S WCI  32
ALLIANCE       SUNNY     38  22  52 N8        30.49R WCI  32
SIDNEY         SUNNY     41  16  36 N17       30.50R
WHITECLAY        N/A     34  21  58 W10         N/A  WCI  26
CRESCENT LAKE    N/A     37  24  60 NW10        N/A  WCI  30
LISCO            N/A     41  14  33 W9          N/A
LEWELLEN         N/A     38  22  53 NW10        N/A  WCI  30
$$

...OBSERVATIONS IN NORTH CENTRAL NEBRASKA...

CITY           SKY/WX    TMP DP  RH WIND       PRES   REMARKS
VALENTINE      SUNNY     39  23  52 NW15      30.48S WCI  31
THEDFORD       SUNNY     40  24  54 NW15G21   30.48S WCI  31
AINSWORTH      SUNNY     38  23  54 NW18      30.47R WCI  28
O`NEILL        PTSUNNY   40  26  57 NW23G29   30.45R WCI  30
ORD            CLOUDY    40  24  53 N21G29    30.46R WCI  30
BROKEN BOW     MOSUNNY   40  24  53 NW21      30.47R WCI  30
BROWNLEE         N/A     39  24  55 NW20        N/A  WCI  29
VALENTINE NWR    N/A     37  22  56 NW16G24     N/A  WCI  27
SPRINGVIEW       N/A     39  25  57 W13G24      N/A  WCI  31
BREWSTER         N/A     40  24  51 W16         N/A  WCI  32
ROSE             N/A     41  27  56 SW15        N/A
NEWPORT          N/A     39  23  53 NW20        N/A  WCI  29
SARGENT          N/A     40  27  59 N6G14       N/A
COMSTOCK         N/A     41  23  48 E22         N/A
CHAMBERS         N/A     41  23  49 N9G20       N/A
EWING            N/A     38  28  67 N12G21      N/A  WCI  30
$$

...OBSERVATIONS IN SOUTHWEST NEBRASKA AND FAR NORTHEAST COLORADO...

CITY           SKY/WX    TMP DP  RH WIND       PRES   REMARKS
WRAY           FAIR      44  24  44 NW7       30.52S
HOLYOKE        FAIR      43  27  52 N12       30.52S
IMPERIAL       MOSUNNY   39  25  57 NW15      30.52S WCI  31
OGALLALA       SUNNY     38  26  62 NW8       30.51F WCI  33
NORTH PLATTE   SUNNY     40  23  50 NW14      30.49S WCI  32
MCCOOK         SUNNY     43  23  45 N16G28    30.51S
LEXINGTON      SUNNY     41  25  53 N17       30.49R
BRADY            N/A     39  25  57 SW3         N/A
GOTHENBURG       N/A     38  22  52 NW12        N/A  WCI  30
CALLAWAY         N/A     38  26  61 N15         N/A  WCI  29
$$

...NORTH PLATTE AREA...

CITY           SKY/WX    TMP DP  RH WIND       PRES   REMARKS
AIRPORT        SUNNY     40  23  50 NW14      30.49S WCI  32
DOWNTOWN         N/A     39  24  55 N9G20       N/A  WCI  33
$$

...SOME WEATHER OBSERVATIONS FROM AROUND THE REGION...

CITY           SKY/WX    TMP DP  RH WIND       PRES   REMARKS
DENVER         CLOUDY    43  24  47 VRB3      30.51S
LARAMIE        MOSUNNY   31  26  82 VRB3      30.44F
CHEYENNE       MOSUNNY   40  22  48 SW7       30.47S
SCOTTSBLUFF    SUNNY     42  23  46 NW6       30.50F
RAPID CITY     SUNNY     40  16  37 CALM      30.47S
PIERRE         CLOUDY    36  24  62 NW15      30.48S WCI  27
WINNER         FAIR      40  23  50 NW22      30.47R WCI  30
SIOUX FALLS    CLOUDY    32  23  69 N18       30.41R WCI  20
OMAHA          CLOUDY    38  25  59 N26G32    30.39R WCI  26
GRAND ISLAND   CLOUDY    40  25  55 N22G36    30.47R WCI  30
KANSAS CITY    CLOUDY    40  27  59 N21G26    30.35R WCI  30
WICHITA        PTSUNNY   45  27  49 N23G33    30.45R
HAYS           SUNNY     43  21  42 N22G28    30.51R
LIBERAL        CLOUDY    45  28  53 N21G26    30.54S
GOODLAND       SUNNY     40  27  59 N16       30.52R WCI  31
$$



USA.gov is the U.S. government's official web portal to all federal, state and local government web resources and services.